Weather History for St. Petersburg, FL

Change the Weather History Date:

Sunday, June 16, 2013

  Actual Average Record
Temperature  
Mean Temperature 86 °F -  
Max Temperature 91 °F 90 °F 98 °F (1981)
Min Temperature 80 °F 75 °F 70 °F (1955)
Cooling Degree Days 20    
Growing Degree Days 36 (Base 50)    
Moisture  
Dew Point 77 °F    
Average Humidity 80    
Maximum Humidity 90    
Minimum Humidity 62    
Precipitation  
Precipitation 0.00 in - - ()
Sea Level Pressure  
Sea Level Pressure 30.05 in    
Wind  
Wind Speed 10 mph (ESE)    
Max Wind Speed 18 mph    
Max Gust Speed -    
Visibility 10 miles    
Events Thunderstorm    
Averages and records for this station are not official NWS values.
T = Trace of Precipitation, MM = Missing Value Source: NWS Daily Summary

Daily Weather History Graph

Daily Weather History Graph

Search for Another Location

Airport:

Trip Planner

Search our weather history database for the weather conditions in past years. The results will help you decide how hot, cold, wet, or windy it might be!

Date:

Astronomy

Jun. 16, 2013 Rise Set
Actual Time 6:34 AM EDT 8:28 PM EDT
Civil Twilight 6:07 AM EDT 8:54 PM EDT
Nautical Twilight 5:35 AM EDT 9:27 PM EDT
Astronomical Twilight 5:01 AM EDT 10:01 PM EDT
Moon 1:33 PM EDT (6/16) 1:05 AM EDT (6/16)
Length of Visible Light 14h 47m
Length of Day
13h 53m
Waxing Crescent, 49% of the Moon is Illuminated
Jun 16
Waxing Crescent
Jun 16
First Quarter
Jun 23
Full
Jun 30
Last Quarter
Jul 8
New

Hourly Weather History & Observations

Time (EDT) Temp. Heat Index Dew Point Humidity Pressure Visibility Wind Dir Wind Speed Gust Speed Precip Events Conditions
12:53 AM 82.0 °F 90.2 °F 77.0 °F 85% 30.06 in 10.0 mi ESE 12.7 mph - N/A   Overcast
1:53 AM 82.0 °F 89.4 °F 75.9 °F 82% 30.05 in 10.0 mi ESE 18.4 mph - N/A   Overcast
2:53 AM 82.0 °F 90.2 °F 77.0 °F 85% 30.04 in 10.0 mi ESE 15.0 mph - N/A   Overcast
3:53 AM 81.0 °F 87.9 °F 77.0 °F 88% 30.03 in 10.0 mi ESE 12.7 mph - N/A   Mostly Cloudy
4:18 AM 81.0 °F 87.9 °F 77.0 °F 88% 30.03 in 10.0 mi ESE 13.8 mph - N/A   Mostly Cloudy
4:50 AM 80.6 °F 87.1 °F 77.0 °F 89% 30.03 in 10.0 mi ESE 11.5 mph - N/A   Scattered Clouds
4:53 AM 81.0 °F 87.9 °F 77.0 °F 88% 30.03 in 10.0 mi SE 11.5 mph - N/A   Mostly Cloudy
5:28 AM 81.0 °F 87.9 °F 77.0 °F 88% 30.03 in 10.0 mi ESE 10.4 mph - N/A   Mostly Cloudy
5:53 AM 80.1 °F 85.8 °F 77.0 °F 90% 30.04 in 10.0 mi SE 9.2 mph - N/A   Mostly Cloudy
6:53 AM 80.1 °F 85.8 °F 77.0 °F 90% 30.06 in 10.0 mi ESE 9.2 mph - N/A   Mostly Cloudy
7:08 AM 80.1 °F 85.8 °F 77.0 °F 90% 30.05 in 10.0 mi ESE 8.1 mph - N/A   Scattered Clouds
7:16 AM 80.1 °F 85.8 °F 77.0 °F 90% 30.05 in 10.0 mi SE 8.1 mph - N/A   Mostly Cloudy
7:23 AM 80.1 °F 85.8 °F 77.0 °F 90% 30.05 in 10.0 mi SE 9.2 mph - N/A   Scattered Clouds
7:53 AM 80.1 °F 85.8 °F 77.0 °F 90% 30.06 in 10.0 mi SE 9.2 mph - N/A   Scattered Clouds
8:14 AM 80.1 °F 85.8 °F 77.0 °F 90% 30.07 in 10.0 mi SE 9.2 mph - N/A   Mostly Cloudy
8:38 AM 81.0 °F 87.9 °F 77.0 °F 88% 30.07 in 10.0 mi ESE 6.9 mph - N/A   Scattered Clouds
8:53 AM 81.0 °F 87.9 °F 77.0 °F 88% 30.07 in 10.0 mi SE 8.1 mph - N/A   Mostly Cloudy
9:03 AM 81.0 °F 87.9 °F 77.0 °F 88% 30.08 in 10.0 mi SE 8.1 mph - N/A   Scattered Clouds
9:14 AM 81.0 °F 87.9 °F 77.0 °F 88% 30.07 in 10.0 mi SE 5.8 mph - N/A   Mostly Cloudy
9:30 AM 82.0 °F 90.2 °F 77.0 °F 85% 30.07 in 10.0 mi SE 6.9 mph - N/A   Scattered Clouds
9:53 AM 82.9 °F 91.8 °F 77.0 °F 82% 30.07 in 10.0 mi ESE 4.6 mph - N/A   Partly Cloudy
10:53 AM 84.0 °F 93.7 °F 77.0 °F 79% 30.06 in 10.0 mi SE 4.6 mph - N/A   Partly Cloudy
11:53 AM 87.1 °F 99.8 °F 78.1 °F 74% 30.07 in 10.0 mi East 3.5 mph - N/A   Clear
12:53 PM 89.1 °F 103.2 °F 78.1 °F 70% 30.06 in 10.0 mi Calm Calm - N/A   Clear
1:53 PM 91.0 °F 106.2 °F 78.1 °F 66% 30.05 in 10.0 mi ENE 3.5 mph - N/A   Clear
2:53 PM 89.1 °F 101.4 °F 77.0 °F 67% 30.04 in 10.0 mi WSW 8.1 mph - N/A   Clear
3:14 PM 87.1 °F 97.3 °F 75.9 °F 69% 30.03 in 10.0 mi NNW 10.4 mph - N/A   Mostly Cloudy
3:53 PM 88.0 °F 98.5 °F 75.9 °F 67% 30.02 in 10.0 mi WNW 6.9 mph - N/A   Partly Cloudy
4:53 PM 88.0 °F 98.5 °F 75.9 °F 67% 30.01 in 10.0 mi WSW 13.8 mph - N/A   Clear
5:53 PM 87.1 °F 97.3 °F 75.9 °F 69% 30.01 in 10.0 mi NNW 8.1 mph - N/A   Mostly Cloudy
6:51 PM 87.8 °F 95.6 °F 73.4 °F 62% 30.03 in 10.0 mi WSW 5.8 mph - N/A Thunderstorm Mostly Cloudy
6:53 PM 87.1 °F 96.3 °F 75.0 °F 67% 30.02 in 10.0 mi WNW 6.9 mph - N/A Thunderstorm Overcast
7:08 PM 87.1 °F 96.3 °F 75.0 °F 67% 30.02 in 10.0 mi West 5.8 mph - N/A   Mostly Cloudy
7:53 PM 87.1 °F 95.4 °F 73.9 °F 65% 30.02 in 10.0 mi WNW 6.9 mph - N/A   Scattered Clouds
8:53 PM 86.0 °F 95.1 °F 75.0 °F 70% 30.03 in 10.0 mi NNW 5.8 mph - N/A   Clear
9:53 PM 84.9 °F 94.1 °F 75.9 °F 74% 30.04 in 10.0 mi WNW 4.6 mph - N/A   Clear
10:53 PM 84.0 °F 92.6 °F 75.9 °F 76% 30.05 in 10.0 mi NNW 4.6 mph - N/A   Clear
11:53 PM 84.0 °F 93.7 °F 77.0 °F 79% 30.08 in 10.0 mi ESE 9.2 mph - N/A   Overcast